TimeCDT,TemperatureF,Dew PointF,Humidity,Sea Level PressureIn,VisibilityMPH,Wind Direction,Wind SpeedMPH,Gust SpeedMPH,PrecipitationIn,Events,Conditions,WindDirDegrees,DateUTC
12:55 AM,69.4,60.8,74,29.84,10.0,North,16.1,21.9,N/A,,Clear,360,2012-05-07 05:55:00
1:55 AM,68.0,60.8,78,29.86,10.0,North,17.3,23.0,N/A,,Clear,360,2012-05-07 06:55:00
2:55 AM,66.2,60.8,83,29.87,10.0,North,11.5,-,N/A,,Clear,350,2012-05-07 07:55:00
3:55 AM,68.0,59.0,73,29.89,10.0,North,15.0,24.2,N/A,,Overcast,360,2012-05-07 08:55:00
4:55 AM,68.0,57.2,68,29.90,10.0,North,19.6,26.5,N/A,,Overcast,360,2012-05-07 09:55:00
5:55 AM,64.4,57.2,77,29.90,10.0,North,13.8,24.2,N/A,,Mostly Cloudy,360,2012-05-07 10:55:00
6:44 AM,64.4,57.2,77,29.92,10.0,North,16.1,23.0,N/A,,Mostly Cloudy,360,2012-05-07 11:44:00
6:47 AM,64.4,57.2,77,29.93,10.0,North,15.0,23.0,N/A,,Mostly Cloudy,10,2012-05-07 11:47:00
6:55 AM,64.2,56.7,76,29.93,10.0,North,13.8,23.0,N/A,,Mostly Cloudy,10,2012-05-07 11:55:00
7:21 AM,64.4,57.2,77,29.93,10.0,North,11.5,-,N/A,,Scattered Clouds,10,2012-05-07 12:21:00
7:39 AM,64.4,57.2,77,29.93,10.0,North,13.8,-,N/A,,Mostly Cloudy,10,2012-05-07 12:39:00
7:47 AM,64.4,57.2,77,29.93,10.0,North,12.7,-,N/A,,Mostly Cloudy,10,2012-05-07 12:47:00
7:55 AM,65.3,56.5,73,29.94,10.0,NNE,13.8,-,N/A,,Mostly Cloudy,20,2012-05-07 12:55:00
7:57 AM,66.2,57.2,73,29.94,10.0,NNE,13.8,-,N/A,,Overcast,20,2012-05-07 12:57:00
8:55 AM,66.2,54.7,66,29.95,10.0,NNE,18.4,-,N/A,,Overcast,30,2012-05-07 13:55:00
9:55 AM,65.3,52.9,64,29.98,10.0,North,13.8,-,N/A,,Mostly Cloudy,360,2012-05-07 14:55:00
10:55 AM,66.4,54.1,65,30.01,10.0,North,17.3,-,N/A,,Mostly Cloudy,10,2012-05-07 15:55:00
11:26 AM,68.0,55.4,64,30.01,10.0,North,15.0,-,N/A,,Mostly Cloudy,10,2012-05-07 16:26:00
11:55 AM,69.4,55.6,61,30.00,10.0,North,16.1,-,N/A,,Overcast,10,2012-05-07 16:55:00
12:55 PM,71.4,56.7,60,30.01,10.0,NNE,17.3,24.2,N/A,,Mostly Cloudy,20,2012-05-07 17:55:00
1:55 PM,71.4,56.7,60,30.00,10.0,NNE,16.1,25.3,N/A,,Mostly Cloudy,30,2012-05-07 18:55:00
2:01 PM,71.6,57.2,60,29.99,10.0,NNE,19.6,25.3,N/A,,Mostly Cloudy,20,2012-05-07 19:01:00
2:05 PM,73.4,57.2,57,29.99,10.0,NNE,18.4,25.3,N/A,,Mostly Cloudy,20,2012-05-07 19:05:00
2:22 PM,73.4,57.2,57,30.01,10.0,NNE,15.0,25.3,N/A,,Mostly Cloudy,20,2012-05-07 19:22:00
2:55 PM,73.6,57.0,56,29.97,10.0,NNE,18.4,26.5,N/A,,Scattered Clouds,30,2012-05-07 19:55:00
3:55 PM,75.2,56.8,53,29.91,10.0,NNE,23.0,31.1,N/A,,Clear,30,2012-05-07 20:55:00
4:55 PM,74.7,56.3,53,29.94,10.0,NNE,17.3,27.6,N/A,,Partly Cloudy,20,2012-05-07 21:55:00
5:41 PM,69.8,55.4,60,29.96,10.0,NNE,20.7,27.6,N/A,,Mostly Cloudy,20,2012-05-07 22:41:00
5:55 PM,69.4,54.9,60,29.96,10.0,NNE,17.3,25.3,N/A,,Mostly Cloudy,20,2012-05-07 22:55:00
6:28 PM,68.0,53.6,60,29.98,10.0,NNE,19.6,26.5,N/A,,Scattered Clouds,20,2012-05-07 23:28:00
6:44 PM,66.2,53.6,64,29.97,10.0,NNE,13.8,-,N/A,,Mostly Cloudy,20,2012-05-07 23:44:00
6:55 PM,66.7,52.7,61,29.98,10.0,NNE,15.0,-,N/A,,Mostly Cloudy,20,2012-05-07 23:55:00
7:03 PM,66.2,51.8,60,29.98,10.0,NNE,15.0,23.0,N/A,,Mostly Cloudy,20,2012-05-08 00:03:00
7:11 PM,66.2,51.8,60,29.99,10.0,NNE,15.0,-,N/A,,Scattered Clouds,30,2012-05-08 00:11:00
7:20 PM,66.2,51.8,60,29.99,10.0,NE,17.3,20.7,N/A,,Mostly Cloudy,40,2012-05-08 00:20:00
7:55 PM,65.7,50.7,58,29.99,10.0,NE,16.1,-,N/A,,Overcast,40,2012-05-08 00:55:00
8:01 PM,66.2,50.0,56,29.99,10.0,NE,15.0,-,N/A,,Scattered Clouds,40,2012-05-08 01:01:00
8:27 PM,64.4,50.0,59,30.00,10.0,NNE,16.1,-,N/A,,Mostly Cloudy,30,2012-05-08 01:27:00
8:30 PM,64.4,50.0,59,30.00,10.0,NNE,15.0,-,N/A,,Scattered Clouds,30,2012-05-08 01:30:00
8:55 PM,64.8,50.4,60,29.99,10.0,NNE,17.3,-,N/A,,Partly Cloudy,30,2012-05-08 01:55:00
9:55 PM,64.2,48.9,58,30.03,10.0,NNE,11.5,-,N/A,,Partly Cloudy,20,2012-05-08 02:55:00
10:30 PM,64.4,46.4,52,30.03,10.0,NNE,9.2,19.6,N/A,,Mostly Cloudy,30,2012-05-08 03:30:00
10:55 PM,64.2,45.5,51,30.03,10.0,NNE,10.4,-,N/A,,Mostly Cloudy,30,2012-05-08 03:55:00
11:07 PM,64.4,44.6,49,30.03,10.0,NNE,11.5,-,N/A,,Scattered Clouds,20,2012-05-08 04:07:00
11:55 PM,64.2,42.8,46,30.02,10.0,NNE,13.8,-,N/A,,Partly Cloudy,20,2012-05-08 04:55:00